[TLELIST] Archives

 

[TLELIST] Current TLEs

January 2nd 2025 PDT

HST 1 20580U 90037B 25001.57030551 .00017492 00000-0 73207-3 0 9993 2 20580 28.4689 91.8396 0002660 62.7061 297.3803 15.22132261707243 ISS (ZARYA) 1 25544U 98067A 25002.23095720 .00034139 00000-0 58981-3 0 9991 2 25544 51.6378 49.1720 0006118 33.9345 326.2034 15.50638329489427 CXO 1 25867U 99040B 25005.48161696 .00000610 00000-0 00000+0 0 9999 2 25867 45.7878 138.5273 8656211 305.8213 0.4036 0.37805792 26483 ...Continue Reading

[TLELIST] Current TLEs

January 1st 2025 PDT

HST 1 20580U 90037B 24366.58680556 .00013928 00000-0 58199-3 0 9996 2 20580 28.4687 98.4724 0002679 55.1645 304.9200 15.22099524707096 ISS (ZARYA) 1 25544U 98067A 24366.81307813 .00027763 00000-0 48311-3 0 9997 2 25544 51.6382 56.2039 0006091 28.0496 332.0820 15.50544003489205 CXO 1 25867U 99040B 25002.83766059 .00000687 00000-0 00000-0 0 9994 2 25867 45.7235 138.6980 8657244 305.7522 0.4087 0.37800605 15319 ...Continue Reading

[TLELIST] Current TLEs

January 1st 2025 PDT

HST 1 20580U 90037B 24366.58680556 .00013928 00000-0 58199-3 0 9996 2 20580 28.4687 98.4724 0002679 55.1645 304.9200 15.22099524707096 ISS (ZARYA) 1 25544U 98067A 24366.81307813 .00027763 00000-0 48311-3 0 9997 2 25544 51.6382 56.2039 0006091 28.0496 332.0820 15.50544003489205 CXO 1 25867U 99040B 25002.83766059 .00000687 00000-0 00000-0 0 9994 2 25867 45.7235 138.6980 8657244 305.7522 0.4087 0.37800605 15319 ...Continue Reading

[TLELIST] Current TLEs

December 31st 2024 PDT

HST 1 20580U 90037B 24365.60328680 .00014464 00000-0 60514-3 0 9995 2 20580 28.4686 105.1058 0002610 45.3840 314.6966 15.22073435706947 ISS (ZARYA) 1 25544U 98067A 24366.44037236 .00026433 00000-0 46080-3 0 9999 2 25544 51.6401 58.0461 0005884 28.2226 50.1244 15.50522660489144 CXO 1 25867U 99040B 25002.83766059 .00000687 00000-0 00000+0 0 9993 2 25867 45.7235 138.6980 8657244 305.7522 0.4087 0.37800605 26478 ...Continue Reading

[TLELIST] Current TLEs

December 31st 2024 PDT

HST 1 20580U 90037B 24365.60328680 .00014464 00000-0 60514-3 0 9995 2 20580 28.4686 105.1058 0002610 45.3840 314.6966 15.22073435706947 ISS (ZARYA) 1 25544U 98067A 24366.44037236 .00026433 00000-0 46080-3 0 9999 2 25544 51.6401 58.0461 0005884 28.2226 50.1244 15.50522660489144 CXO 1 25867U 99040B 25002.83766059 .00000687 00000-0 00000+0 0 9993 2 25867 45.7235 138.6980 8657244 305.7522 0.4087 0.37800605 26478 ...Continue Reading

[TLELIST] Current TLEs

December 30th 2024 PDT

HST 1 20580U 90037B 24365.01316724 .00012748 00000-0 53269-3 0 9998 2 20580 28.4683 109.0859 0002561 39.6785 320.3996 15.22056173707112 ISS (ZARYA) 1 25544U 98067A 24365.39512187 .00026441 00000-0 46185-3 0 9990 2 25544 51.6381 63.2347 0006000 23.2492 336.8768 15.50465299488983 CXO 1 25867U 99040B 24366.19299662 .00000642 00000-0 00000-0 0 9997 2 25867 45.6674 138.8374 8661043 305.7101 0.2908 0.37802720 15319 ...Continue Reading

[TLELIST] Current TLEs

December 29th 2024 PDT

HST 1 20580U 90037B 24363.63619758 .00011342 00000-0 47360-3 0 9991 2 20580 28.4679 118.3726 0002458 24.9503 335.1209 15.22020501706906 ISS (ZARYA) 1 25544U 98067A 24364.46140046 .00025679 00000-0 44965-3 0 9994 2 25544 51.6390 67.8566 0005707 20.6638 164.3696 15.50414415488834 CXO 1 25867U 99040B 24366.19299662 .00000642 00000-0 00000-0 0 9997 2 25867 45.6674 138.8374 8661043 305.7101 0.2908 0.37802720 15319 ...Continue Reading

[TLELIST] Current TLEs

December 28th 2024 PDT

HST 1 20580U 90037B 24362.71820039 .00011545 00000-0 48246-3 0 9994 2 20580 28.4675 124.5630 0002343 15.4360 344.6305 15.22001386706502 ISS (ZARYA) 1 25544U 98067A 24363.22075943 .00029900 00000-0 52305-3 0 9998 2 25544 51.6398 74.0082 0005933 14.3520 81.6203 15.50355175488647 CXO 1 25867U 99040B 24363.54907146 .00000542 00000-0 00000-0 0 9995 2 25867 45.6069 138.9847 8664881 305.6489 0.2812 0.37806673 15296 ...Continue Reading

[TLELIST] Current TLEs

December 27th 2024 PDT

HST 1 20580U 90037B 24361.66904699 .00011589 00000-0 48470-3 0 9999 2 20580 28.4671 131.6385 0002262 4.0046 356.0566 15.21978481706345 ISS (ZARYA) 1 25544U 98067A 24361.72100155 .00025292 00000-0 44526-3 0 9991 2 25544 51.6378 81.4466 0005783 8.5494 351.5592 15.50270151488416 CXO 1 25867U 99040B 24363.54907146 .00000542 00000-0 00000-0 0 9995 2 25867 45.6069 138.9847 8664881 305.6489 0.2812 0.37806673 15296 ...Continue Reading

[TLELIST] Current TLEs

December 26th 2024 PDT

HST 1 20580U 90037B 24361.07889100 .00011096 00000-0 46393-3 0 9998 2 20580 28.4664 135.6170 0002165 357.1555 2.9026 15.21965119706254 ISS (ZARYA) 1 25544U 98067A 24361.26976194 .00022667 00000-0 40037-3 0 9990 2 25544 51.6376 83.6826 0005650 7.2326 352.8743 15.50245661488343 CXO 1 25867U 99040B 24363.54907146 .00000542 00000-0 00000-0 0 9995 2 25867 45.6069 138.9847 8664881 305.6489 0.2812 0.37806673 15296 ...Continue Reading
  • This mailing list is a public mailing list - anyone may join or leave, at any time.
  • This mailing list is announce-only.

International Space Station (ISS) / Hubble Space Telescope (HST) / Chandra X-Ray Observatory Orbital Data via EMAIL

Privacy Policy:

Private list